Location: Street
(51.1247°N, 2.7429°W)
Time: 06:35:22
(UTC+00:00)

Transit 2A - All Passes

Search period start: 27 November 2020 00:00
Search period end: 07 December 2020 00:00
Orbit: 595 x 964 km, 66.7° (Epoch: 26 November)

Date Brightness Start Highest point End Pass type
(mag) Time Alt. Az. Time Alt. Az. Time Alt. Az.
27 Nov - 00:07:13 10° NNW 00:11:30 21° NNE 00:15:28 10° ENE night (unlit)
27 Nov - 01:50:29 10° NW 01:55:54 59° NE 02:00:43 10° SE night (unlit)
27 Nov - 03:34:20 10° NW 03:38:41 27° WSW 03:42:41 10° SSW night (unlit)
27 Nov - 16:36:05 10° SSE 16:40:15 19° ESE 16:44:18 10° ENE daylight
27 Nov - 18:16:28 10° SSW 18:22:47 80° SE 18:28:43 10° NE visible
27 Nov - 20:01:05 10° W 20:06:36 33° NW 20:11:48 10° NNE visible
27 Nov - 21:47:43 10° NW 21:51:35 17° N 21:55:14 10° NNE visible
27 Nov - 23:32:57 10° NNW 23:36:58 19° NNE 23:40:42 10° ENE night (unlit)
28 Nov - 01:16:19 10° NNW 01:21:36 46° NE 01:26:20 10° ESE night (unlit)
28 Nov - 02:59:53 10° NW 03:04:43 38° WSW 03:09:06 10° S night (unlit)
28 Nov - 16:03:33 10° SE 16:06:22 13° ESE 16:09:10 10° ENE daylight
28 Nov - 17:42:26 10° SSW 17:48:39 62° ESE 17:54:31 10° NE visible
28 Nov - 19:26:25 10° WSW 19:32:13 39° NW 19:37:40 10° NNE visible
28 Nov - 21:12:53 10° WNW 21:17:00 19° NNW 21:20:54 10° NNE visible
28 Nov - 22:58:38 10° NNW 23:02:24 18° N 23:05:56 10° NE night (unlit)
29 Nov - 00:42:11 10° NNW 00:47:15 36° NE 00:51:50 10° ESE night (unlit)
29 Nov - 02:25:32 10° NW 02:30:42 53° WSW 02:35:19 10° SSE night (unlit)
29 Nov - 17:08:34 10° S 17:14:33 47° ESE 17:20:14 10° NE visible
29 Nov - 18:51:51 10° WSW 18:57:53 48° NW 19:03:31 10° NNE visible
29 Nov - 20:38:02 10° WNW 20:42:27 21° NNW 20:46:37 10° NNE visible
29 Nov - 22:24:12 10° NNW 22:27:48 17° N 22:31:12 10° NE visible
30 Nov - 00:08:01 10° NNW 00:12:51 30° NNE 00:17:14 10° E night (unlit)
30 Nov - 01:51:16 10° NW 01:56:36 73° SW 02:01:21 10° SSE night (unlit)
30 Nov - 03:36:44 10° W 03:38:40 12° WSW 03:40:34 10° SW night (unlit)
30 Nov - 16:34:53 10° S 16:40:30 35° ESE 16:45:53 10° NE visible
30 Nov - 18:17:23 10° SW 18:23:36 61° NW 18:29:23 10° NE visible
30 Nov - 20:03:11 10° WNW 20:07:56 23° NNW 20:12:24 10° NNE visible
30 Nov - 21:49:41 10° NW 21:53:12 16° N 21:56:33 10° NE visible
30 Nov - 23:33:51 10° NNW 23:38:23 25° NNE 23:42:34 10° E night (unlit)
01 Dec - 01:17:03 10° NW 01:22:27 83° NE 01:27:15 10° SE night (unlit)
01 Dec - 03:01:30 10° WNW 03:04:50 18° WSW 03:07:59 10° SSW night (unlit)
01 Dec - 16:01:24 10° SSE 16:06:31 27° ESE 16:11:24 10° NE daylight
01 Dec - 17:43:04 10° SW 17:49:21 77° NW 17:55:14 10° NE visible
01 Dec - 19:28:21 10° W 19:33:27 27° NNW 19:38:14 10° NNE visible
01 Dec - 21:15:01 10° NW 21:18:36 16° N 21:22:00 10° NE visible
01 Dec - 22:59:39 10° NNW 23:03:54 22° NNE 23:07:50 10° ENE night (unlit)
02 Dec - 00:42:52 10° NW 00:48:14 62° NE 00:53:00 10° SE night (unlit)
02 Dec - 02:26:48 10° WNW 02:30:57 25° WSW 02:34:47 10° SSW night (unlit)
02 Dec - 15:28:14 10° SSE 15:32:34 20° ESE 15:36:45 10° ENE daylight
02 Dec - 17:08:51 10° SSW 17:15:09 84° SE 17:21:03 10° NE visible
02 Dec - 18:53:36 10° W 18:59:01 31° NNW 19:04:04 10° NNE visible
02 Dec - 20:40:17 10° NW 20:44:00 17° N 20:47:32 10° NNE visible
02 Dec - 22:25:24 10° NNW 22:29:22 19° NNE 22:33:04 10° ENE visible
03 Dec - 00:08:43 10° NNW 00:13:57 48° NE 00:18:38 10° ESE night (unlit)
03 Dec - 01:52:18 10° NW 01:57:00 35° WSW 02:01:15 10° S night (unlit)
03 Dec - 14:55:33 10° SE 14:58:41 14° ESE 15:01:44 10° ENE daylight
03 Dec - 16:34:47 10° SSW 16:41:00 65° ESE 16:46:50 10° NE visible
03 Dec - 18:18:55 10° WSW 18:24:37 37° NW 18:29:57 10° NNE visible
03 Dec - 20:05:27 10° WNW 20:09:26 18° NNW 20:13:11 10° NNE visible
03 Dec - 21:51:06 10° NNW 21:54:48 18° NNE 21:58:17 10° NE visible
03 Dec - 23:34:34 10° NNW 23:39:36 37° NE 23:44:09 10° ESE night (unlit)
04 Dec - 01:17:57 10° NW 01:22:59 49° WSW 01:27:30 10° SSE night (unlit)
04 Dec - 16:00:53 10° S 16:06:54 49° ESE 16:12:34 10° NE daylight
04 Dec - 17:44:19 10° WSW 17:50:16 46° NW 17:55:49 10° NNE visible
04 Dec - 19:30:36 10° WNW 19:34:52 20° NNW 19:38:54 10° NNE visible
04 Dec - 21:16:41 10° NNW 21:20:13 16° N 21:23:33 10° NE visible
04 Dec - 23:00:25 10° NNW 23:05:13 30° NNE 23:09:35 10° E night (unlit)
05 Dec - 00:43:40 10° NW 00:48:54 68° WSW 00:53:35 10° SSE night (unlit)
05 Dec - 02:29:37 10° W 02:30:55 11° W 02:32:11 10° WSW night (unlit)
05 Dec - 15:27:10 10° S 15:32:51 37° ESE 15:38:14 10° NE daylight
05 Dec - 17:09:50 10° SW 17:15:59 58° NW 17:21:41 10° NNE visible
05 Dec - 18:55:44 10° WNW 19:00:21 22° NNW 19:04:41 10° NNE visible
05 Dec - 20:42:11 10° NW 20:45:37 16° N 20:48:53 10° NE visible
05 Dec - 22:26:15 10° NNW 22:30:46 25° NNE 22:34:55 10° E visible
06 Dec - 00:09:26 10° NW 00:14:45 88° NE 00:19:30 10° SE night (unlit)
06 Dec - 01:54:02 10° WNW 01:57:05 16° WSW 01:59:57 10° SW night (unlit)
06 Dec - 14:53:38 10° SSE 14:58:50 28° ESE 15:03:47 10° NE daylight
06 Dec - 16:35:29 10° SW 16:41:44 73° NW 16:47:32 10° NE visible
06 Dec - 18:20:54 10° W 18:25:51 26° NNW 18:30:30 10° NNE visible
06 Dec - 20:07:34 10° NW 20:11:01 16° N 20:14:18 10° NE visible
06 Dec - 21:52:04 10° NNW 21:56:17 22° NNE 22:00:11 10° ENE visible
06 Dec - 23:35:15 10° NW 23:40:33 66° NE 23:45:17 10° SE night (unlit)
